Volver al catálogo

KUIPER-00489

ActivoComunicacionesLEO
NORAD 68880·PAYLOAD·🇺🇸 United States

Lanzado Apr 28, 2026 desde Cape Canaveral Space Force Station

Loading…

Próximos Pases (próximas 24 horas)

TLE

ActualizadoSource: CelesTrak SupGP

Época: Sep 14, 2026, 20:57 UTC

1 68880C 26095S   26257.87304398 -.00001227  00000+0 -16054-3 0  2575
2 68880  51.8959 191.5620 0001281  75.0900 125.0051 14.79937816    16

Sigue KUIPER-00489 en tiempo real con AllMySat

Download on the App Store